Latest Coastal Weather Observations for Cape Nelson

IDV60701

Issued at 3:25 pm EST Friday 25 April 2014 (issued every 10 minutes, with the page automatically refreshed every 10 minutes)

About coastal observations | Map of coastal stations | Coastal observations for VIC | Marine services | Other Formats
Station Details ID: 090184 Name: CAPE NELSON LIGHTHOUSE Lat: -38.43 Lon: 141.54 Height: 45.4 m
Data from the previous 72 hours. | See also: Recent months at Cape Nelson
Date/Time
EST
Temp

°C
Wind Pressure Rain
since 9am
mm
Weather Cloud Vis
km
Sea
Height
m
Swell
Dir
 
Speed
knots
Gust
knots
hPa Trend Height
m
Period
s
Dir
25/03:00pm 18.6 NNW 11 19 1011.9 - 0.0 - - - - - - -
25/02:30pm 18.8 NNW 11 17 1012.3 - 0.0 - - - - - - -
25/02:00pm 18.7 N 10 16 1012.8 - 0.0 - - - - - - -
25/01:30pm 17.7 NNW 11 16 1013.3 - 0.0 - - - - - - -
25/01:00pm 17.8 N 12 17 1014.3 - 0.0 - - - - - - -
25/12:30pm 17.2 N 13 17 1015.1 - 0.0 - - - - - - -
25/12:00pm 16.4 N 10 17 1015.6 - 0.0 - - - - - - -
25/11:30am 15.4 N 12 17 1016.0 - 0.0 - - - - - - -
25/11:00am 14.5 N 12 17 1016.5 - 0.0 - - - - - - -
25/10:30am 14.3 N 11 16 1017.2 - 0.0 - - - - - - -
25/10:00am 13.5 N 10 15 1017.9 - 0.0 - - - - - - -
25/09:30am 11.8 N 10 14 1018.4 - 0.0 - - - - - - -
25/09:00am 10.5 N 10 14 1018.6 - 0.0 - - - - - - -
25/08:30am 9.5 NNE 9 12 1018.5 - 0.0 - - - - - - -
25/08:00am 8.2 NNE 10 13 1018.4 - 0.0 - - - - - - -
25/07:30am 7.5 NNE 10 13 1018.6 - 0.0 - - - - - - -
25/07:00am 7.6 NNE 11 14 1018.8 - 0.0 - - - - - - -
25/06:30am 7.2 NNE 10 13 1018.9 - 0.0 - - - - - - -
25/06:00am 6.7 NNE 10 11 1019.2 - 0.0 - - - - - - -
25/05:30am 6.9 N 10 12 1019.3 - 0.0 - - - - - - -
25/05:00am 6.6 N 9 12 1019.4 - 0.0 - - - - - - -
25/04:30am 6.9 NNE 10 13 1019.1 - 0.0 - - - - - - -
25/04:00am 6.5 NNE 9 11 1019.3 - 0.0 - - - - - - -
25/03:30am 6.6 N 8 10 1019.7 - 0.0 - - - - - - -
25/03:00am 6.5 N 8 9 1020.1 - 0.0 - - - - - - -
25/02:30am 6.3 N 8 9 1020.3 - 0.0 - - - - - - -
25/02:00am 6.2 N 7 8 1020.4 - 0.0 - - - - - - -
25/01:30am 6.2 N 7 8 1020.5 - 0.0 - - - - - - -
25/01:00am 6.3 N 6 7 1020.5 - 0.0 - - - - - - -
25/12:30am 6.7 N 5 6 1020.5 - 0.0 - - - - - - -
25/12:00am 7.3 N 5 6 1020.7 - 0.0 - - - - - - -
 
Date/Time
EST
Temp

°C
Wind Pressure Rain
since 9am
mm
Weather Cloud Vis
km
Sea
Height
m
Swell
Dir
 
Speed
knots
Gust
knots
hPa Trend Height
m
Period
s
Dir
24/11:30pm 8.0 N 5 6 1020.9 - 0.0 - - - - - - -
24/11:00pm 9.0 N 5 6 1021.1 - 0.0 - - - - - - -
24/10:30pm 10.4 NNE 3 5 1021.1 - 0.0 - - - - - - -
24/10:00pm 11.9 E 4 6 1021.3 - 0.0 - - - - - - -
24/09:30pm 12.5 S 6 8 1021.2 - 0.0 - - - - - - -
24/09:00pm 12.7 S 5 8 1021.1 - 0.0 - - - - - - -
24/08:30pm 12.8 S 6 8 1021.1 - 0.0 - - - - - - -
24/08:00pm 12.7 S 7 10 1021.0 - 0.0 - - - - - - -
24/07:30pm 12.7 S 6 9 1020.8 - 0.0 - - - - - - -
24/07:00pm 12.4 SSE 5 8 1020.5 - 0.0 - - - - - - -
24/06:30pm 12.3 S 5 8 1020.2 - 0.0 - - - - - - -
24/06:00pm 12.3 S 6 9 1019.9 - 0.0 - - - - - - -
24/05:30pm 12.5 SSW 6 10 1019.5 - 0.0 - - - - - - -
24/05:00pm 13.0 S 7 12 1019.3 - 0.0 - - - - - - -
24/04:30pm 13.1 S 8 13 1019.2 - 0.0 - - - - - - -
24/04:00pm 13.3 S 9 16 1018.8 - 0.0 - - - - - - -
24/03:30pm 13.5 S 11 15 1018.7 - 0.0 - - - - - - -
24/03:00pm 14.4 S 9 13 1018.6 - 0.0 - - - - - - -
24/02:30pm 14.1 S 7 13 1018.5 - 0.0 - - - - - - -
24/02:00pm 13.8 S 9 15 1018.5 - 0.0 - - - - - - -
24/01:30pm 13.8 S 9 15 1018.4 - 0.0 - - - - - - -
24/01:00pm 14.8 NE 7 11 1018.3 - 0.0 - - - - - - -
24/12:30pm 14.0 S 10 17 1018.3 - 0.0 - - - - - - -
24/12:00pm 14.7 ENE 8 12 1018.2 - 0.0 - - - - - - -
24/11:30am 14.4 SSE 8 15 1018.0 - 0.0 - - - - - - -
24/11:00am 14.1 S 9 17 1017.9 - 0.0 - - - - - - -
24/10:30am 14.2 NE 9 19 1017.5 - 0.0 - - - - - - -
24/10:00am 14.1 NNE 11 16 1017.3 - 0.0 - - - - - - -
24/09:30am 13.6 NNE 10 19 1016.9 - 0.0 - - - - - - -
24/09:00am 13.8 NW 10 16 1016.5 - 12.6 - - - - - - -
24/08:30am 13.4 ENE 9 18 1016.0 - 12.6 - - - - - - -
24/08:00am 13.1 S 10 22 1015.2 - 12.6 - - - - - - -
24/07:30am 13.1 SE 13 22 1014.4 - 12.6 - - - - - - -
24/07:00am 13.2 NE 13 23 1013.5 - 12.6 - - - - - - -
24/06:30am 13.4 NNE 13 25 1012.8 - 12.6 - - - - - - -
24/06:00am 13.3 NE 13 19 1012.2 - 12.6 - - - - - - -
24/05:30am 13.5 NNE 13 21 1011.5 - 12.6 - - - - - - -
24/05:00am 13.9 N 14 22 1010.9 - 12.6 - - - - - - -
24/04:30am 13.7 NE 13 22 1010.1 - 12.6 - - - - - - -
24/04:04am 13.1 SE 16 27 1009.3 - 12.6 - - - - - - -
24/04:00am 12.9 NE 14 23 1009.4 - 12.6 - - - - - - -
24/03:39am 13.1 SSE 16 26 1008.9 - 12.4 - - - - - - -
24/03:30am 13.4 N 13 39 1008.7 - 12.4 - - - - - - -
24/03:27am 13.6 W 17 39 1009.0 - 12.0 - - - - - - -
24/03:04am 13.6 WNW 19 29 1009.2 - 10.8 - - - - - - -
24/03:00am 14.5 WNW 21 30 1008.7 - 8.2 - - - - - - -
24/02:45am 14.2 W 23 39 1008.5 - 5.4 - - - - - - -
24/02:30am 14.3 NW 22 34 1008.3 - 1.4 - - - - - - -
24/02:00am 14.4 NW 23 34 1008.3 - 0.2 - - - - - - -
24/01:30am 14.4 NW 22 34 1008.6 - 0.2 - - - - - - -
24/01:25am 14.5 NW 21 34 1008.6 - 0.2 - - - - - - -
24/01:00am 14.2 NNW 20 27 1009.0 - 0.2 - - - - - - -
24/12:44am 14.0 NNW 16 28 1009.1 - 0.2 - - - - - - -
24/12:30am 14.0 NW 18 25 1009.3 - 0.2 - - - - - - -
24/12:02am 13.6 NNW 15 25 1009.6 - 0.2 - - - - - - -
24/12:00am 13.3 NNW 14 20 1009.6 - 0.2 - - - - - - -
 
Date/Time
EST
Temp

°C
Wind Pressure Rain
since 9am
mm
Weather Cloud Vis
km
Sea
Height
m
Swell
Dir
 
Speed
knots
Gust
knots
hPa Trend Height
m
Period
s
Dir
23/11:47pm 13.4 NNW 15 25 1009.8 - 0.2 - - - - - - -
23/11:30pm 13.1 NNW 15 23 1010.1 - 0.2 - - - - - - -
23/11:00pm 12.4 NNW 14 20 1010.4 - 0.2 - - - - - - -
23/10:30pm 13.3 NNW 15 23 1010.8 - 0.2 - - - - - - -
23/10:00pm 14.6 NNW 16 24 1011.0 - 0.2 - - - - - - -
23/09:30pm 14.2 NNW 13 20 1010.9 - 0.2 - - - - - - -
23/09:00pm 14.6 NNW 13 20 1011.1 - 0.2 - - - - - - -
23/08:30pm 14.7 NW 17 26 1011.4 - 0.2 - - - - - - -
23/08:23pm 14.8 NNW 15 26 1011.5 - 0.2 - - - - - - -
23/08:00pm 14.6 NNW 12 17 1011.7 - 0.2 - - - - - - -
23/07:30pm 13.7 NNW 10 14 1011.8 - 0.2 - - - - - - -
23/07:00pm 14.0 NW 10 14 1011.8 - 0.2 - - - - - - -
23/06:30pm 14.4 NNW 8 12 1011.6 - 0.2 - - - - - - -
23/06:00pm 15.1 NW 9 13 1011.6 - 0.2 - - - - - - -
23/05:30pm 15.4 NW 10 14 1011.6 - 0.2 - - - - - - -
23/05:00pm 16.0 NW 11 16 1011.7 - 0.2 - - - - - - -
23/04:30pm 16.5 WNW 13 18 1011.8 - 0.2 - - - - - - -
23/04:00pm 17.8 NW 11 16 1012.0 - 0.2 - - - - - - -
23/03:30pm 17.9 NW 13 19 1012.3 - 0.2 - - - - - - -
23/03:00pm 17.9 NW 15 20 1012.4 - 0.2 - - - - - - -
23/02:30pm 17.6 WNW 15 22 1012.9 - 0.2 - - - - - - -
23/02:00pm 17.8 NW 15 23 1013.2 - 0.2 - - - - - - -
23/01:30pm 17.5 NW 16 23 1013.4 - 0.0 - - - - - - -
23/01:00pm 17.2 NW 16 22 1014.0 - 0.0 - - - - - - -
23/12:30pm 16.2 NW 14 21 1014.5 - 0.0 - - - - - - -
23/12:00pm 16.4 NW 12 17 1015.0 - 0.0 - - - - - - -
23/11:30am 15.1 NNW 10 14 1015.3 - 0.0 - - - - - - -
23/11:00am 14.4 NNW 12 16 1015.6 - 0.0 - - - - - - -
23/10:30am 13.8 N 9 14 1015.9 - 0.0 - - - - - - -
23/10:00am 13.5 NNW 8 11 1016.3 - 0.0 - - - - - - -
23/09:30am 14.2 NNW 9 13 1016.6 - 0.0 - - - - - - -
23/09:00am 13.1 NNW 10 14 1016.5 - 3.0 - - - - - - -
23/08:30am 11.8 NNW 9 12 1016.4 - 3.0 - - - - - - -
23/08:00am 10.6 NNW 7 9 1016.2 - 3.0 - - - - - - -
23/07:30am 10.3 NNW 8 10 1016.1 - 3.0 - - - - - - -
23/07:00am 10.3 N 8 11 1015.7 - 3.0 - - - - - - -
23/06:30am 9.7 NNW 7 9 1016.0 - 3.0 - - - - - - -
23/06:00am 9.5 NNW 7 8 1016.1 - 3.0 - - - - - - -
23/05:30am 9.7 NNW 7 9 1016.2 - 3.0 - - - - - - -
23/05:00am 9.7 NNW 7 9 1016.1 - 3.0 - - - - - - -
23/04:30am 9.1 NW 7 8 1016.1 - 3.0 - - - - - - -
23/04:00am 9.1 NW 7 9 1015.8 - 3.0 - - - - - - -
23/03:30am 8.8 N 5 7 1015.6 - 3.0 - - - - - - -
23/03:00am 9.0 NNW 5 6 1016.0 - 3.0 - - - - - - -
23/02:30am 9.5 NNW 5 6 1016.3 - 3.0 - - - - - - -
23/02:00am 10.3 NNW 5 6 1016.7 - 2.8 - - - - - - -
23/01:30am 10.9 N 5 6 1016.9 - 2.8 - - - - - - -
23/01:00am 11.4 NNW 5 7 1017.1 - 2.8 - - - - - - -
23/12:30am 11.8 NNW 5 8 1017.3 - 2.4 - - - - - - -
23/12:00am 12.3 N 3 5 1017.4 - 2.4 - - - - - - -
 
Date/Time
EST
Temp

°C
Wind Pressure Rain
since 9am
mm
Weather Cloud Vis
km
Sea
Height
m
Swell
Dir
 
Speed
knots
Gust
knots
hPa Trend Height
m
Period
s
Dir
22/11:30pm 13.7 W 7 9 1017.4 - 2.4 - - - - - - -
22/11:00pm 13.5 W 8 11 1017.7 - 2.4 - - - - - - -
22/10:30pm 13.1 W 6 10 1018.0 - 2.4 - - - - - - -
22/10:00pm 13.3 NNW 6 9 1017.8 - 0.0 - - - - - - -
22/09:30pm 14.3 W 6 10 1017.8 - 0.0 - - - - - - -
22/09:00pm 14.6 W 7 10 1017.6 - 0.0 - - - - - - -
22/08:30pm 14.4 NW 6 10 1017.5 - 0.0 - - - - - - -
22/08:00pm 14.7 WNW 8 12 1017.5 - 0.0 - - - - - - -
22/07:30pm 14.5 WNW 9 12 1017.2 - 0.0 - - - - - - -
22/07:00pm 14.5 WNW 8 13 1017.0 - 0.0 - - - - - - -
22/06:30pm 14.5 NW 8 13 1016.6 - 0.0 - - - - - - -
22/06:00pm 14.8 W 12 16 1016.5 - 0.0 - - - - - - -
22/05:30pm 14.7 W 8 11 1016.2 - 0.0 - - - - - - -
22/05:00pm 14.7 WNW 8 12 1016.1 - 0.0 - - - - - - -
22/04:30pm 15.1 NNW 6 10 1016.0 - 0.0 - - - - - - -
22/04:00pm 15.3 NW 10 18 1015.8 - 0.0 - - - - - - -
22/03:30pm 16.2 W 7 11 1015.6 - 0.0 - - - - - - -

Other Formats:

Comma delimited format used in spreadsheet applications
http://www.bom.gov.au/fwo/IDV60701/IDV60701.94826.axf

JavaScript Object Notation format (JSON) in row-major order
http://www.bom.gov.au/fwo/IDV60701/IDV60701.94826.json